TimeCDT,TemperatureF,Dew PointF,Humidity,Sea Level PressureIn,VisibilityMPH,Wind Direction,Wind SpeedMPH,Gust SpeedMPH,PrecipitationIn,Events,Conditions,WindDirDegrees,DateUTC
12:15 AM,80.6,75.2,84,29.83,10.0,Calm,Calm,-,N/A,,Clear,0,2013-09-01 05:15:00
12:35 AM,78.8,73.4,83,29.82,10.0,Calm,Calm,-,N/A,,Clear,0,2013-09-01 05:35:00
12:55 AM,77.0,73.4,89,29.82,10.0,Calm,Calm,-,N/A,,Clear,0,2013-09-01 05:55:00
1:15 AM,78.8,73.4,83,29.82,10.0,Calm,Calm,-,N/A,,Clear,0,2013-09-01 06:15:00
1:35 AM,78.8,73.4,83,29.83,10.0,Calm,Calm,-,N/A,,Clear,0,2013-09-01 06:35:00
1:55 AM,78.8,73.4,83,29.83,10.0,Calm,Calm,-,N/A,,Clear,0,2013-09-01 06:55:00
2:15 AM,77.0,73.4,89,29.83,10.0,Calm,Calm,-,N/A,,Clear,0,2013-09-01 07:15:00
2:35 AM,77.0,73.4,89,29.83,10.0,Calm,Calm,-,N/A,,Clear,0,2013-09-01 07:35:00
2:55 AM,77.0,71.6,83,29.83,10.0,Calm,Calm,-,N/A,,Clear,0,2013-09-01 07:55:00
3:15 AM,77.0,73.4,89,29.83,10.0,Calm,Calm,-,N/A,,Clear,0,2013-09-01 08:15:00
3:35 AM,77.0,73.4,89,29.83,10.0,Calm,Calm,-,N/A,,Clear,0,2013-09-01 08:35:00
3:55 AM,77.0,73.4,89,29.83,10.0,Calm,Calm,-,N/A,,Clear,0,2013-09-01 08:55:00
4:15 AM,77.0,71.6,83,29.83,10.0,Calm,Calm,-,N/A,,Clear,0,2013-09-01 09:15:00
4:35 AM,77.0,73.4,89,29.83,10.0,Calm,Calm,-,N/A,,Clear,0,2013-09-01 09:35:00
4:55 AM,77.0,73.4,89,29.83,10.0,Calm,Calm,-,N/A,,Clear,0,2013-09-01 09:55:00
5:15 AM,73.4,71.6,94,29.83,10.0,Calm,Calm,-,N/A,,Clear,0,2013-09-01 10:15:00
5:35 AM,73.4,73.4,100,29.84,10.0,Calm,Calm,-,N/A,,Clear,0,2013-09-01 10:35:00
5:55 AM,73.4,71.6,94,29.84,10.0,Calm,Calm,-,N/A,,Clear,0,2013-09-01 10:55:00
6:15 AM,77.0,73.4,89,29.83,10.0,South,3.5,-,N/A,,Clear,190,2013-09-01 11:15:00
6:35 AM,77.0,73.4,89,29.83,10.0,Calm,Calm,-,N/A,,Clear,0,2013-09-01 11:35:00
6:55 AM,77.0,73.4,89,29.83,10.0,Calm,Calm,-,N/A,,Clear,0,2013-09-01 11:55:00
7:15 AM,77.0,73.4,89,29.84,10.0,Calm,Calm,-,N/A,,Clear,0,2013-09-01 12:15:00
7:35 AM,77.0,73.4,89,29.85,10.0,Calm,Calm,-,N/A,,Clear,0,2013-09-01 12:35:00
7:55 AM,77.0,73.4,89,29.85,10.0,Calm,Calm,-,N/A,,Clear,0,2013-09-01 12:55:00
8:15 AM,78.8,75.2,89,29.86,10.0,Calm,Calm,-,N/A,,Clear,0,2013-09-01 13:15:00
8:35 AM,78.8,75.2,89,29.87,10.0,Calm,Calm,-,N/A,,Clear,0,2013-09-01 13:35:00
8:55 AM,80.6,75.2,84,29.87,10.0,Calm,Calm,-,N/A,,Clear,0,2013-09-01 13:55:00
9:15 AM,82.4,75.2,79,29.87,10.0,SSW,4.6,-,N/A,,Clear,210,2013-09-01 14:15:00
9:35 AM,84.2,75.2,74,29.87,10.0,SSW,5.8,-,N/A,,Clear,210,2013-09-01 14:35:00
9:55 AM,86.0,77.0,74,29.87,10.0,SW,5.8,-,N/A,,Clear,220,2013-09-01 14:55:00
10:15 AM,89.6,78.8,70,29.87,10.0,SW,5.8,-,N/A,,Clear,230,2013-09-01 15:15:00
10:35 AM,91.4,78.8,66,29.87,10.0,SSW,5.8,-,N/A,,Clear,210,2013-09-01 15:35:00
10:55 AM,91.4,77.0,63,29.87,10.0,SSW,5.8,-,N/A,,Clear,210,2013-09-01 15:55:00
11:15 AM,91.4,77.0,63,29.87,10.0,South,4.6,-,N/A,,Clear,190,2013-09-01 16:15:00
11:35 AM,91.4,77.0,63,29.86,10.0,SSW,5.8,-,N/A,,Clear,210,2013-09-01 16:35:00
11:55 AM,93.2,77.0,59,29.87,10.0,SSW,5.8,-,N/A,,Clear,200,2013-09-01 16:55:00
12:15 PM,93.2,77.0,59,29.86,10.0,South,5.8,-,N/A,,Clear,190,2013-09-01 17:15:00
12:35 PM,95.0,77.0,56,29.86,10.0,South,5.8,-,N/A,,Clear,190,2013-09-01 17:35:00
12:55 PM,95.0,77.0,56,29.85,10.0,South,5.8,-,N/A,,Clear,180,2013-09-01 17:55:00
1:15 PM,96.8,77.0,53,29.85,10.0,SSW,5.8,-,N/A,,Clear,210,2013-09-01 18:15:00
1:35 PM,96.8,78.8,56,29.84,10.0,SW,5.8,-,N/A,,Clear,230,2013-09-01 18:35:00
1:55 PM,96.8,78.8,56,29.83,10.0,South,5.8,-,N/A,,Clear,190,2013-09-01 18:55:00
2:15 PM,98.6,78.8,53,29.83,10.0,South,5.8,-,N/A,,Clear,170,2013-09-01 19:15:00
2:35 PM,98.6,78.8,53,29.82,10.0,South,4.6,-,N/A,,Clear,180,2013-09-01 19:35:00
2:55 PM,98.6,77.0,50,29.81,10.0,SSW,8.1,-,N/A,,Clear,200,2013-09-01 19:55:00
3:15 PM,98.6,75.2,47,29.80,10.0,SSW,8.1,-,N/A,,Clear,200,2013-09-01 20:15:00
3:35 PM,98.6,77.0,50,29.80,10.0,SW,5.8,-,N/A,,Clear,220,2013-09-01 20:35:00
3:55 PM,98.6,75.2,47,29.79,10.0,SW,4.6,-,N/A,,Clear,230,2013-09-01 20:55:00
4:15 PM,98.6,75.2,47,29.77,10.0,Calm,Calm,-,N/A,,Clear,0,2013-09-01 21:15:00
4:35 PM,98.6,73.4,44,29.77,10.0,SSW,3.5,-,N/A,,Clear,210,2013-09-01 21:35:00
4:55 PM,100.4,73.4,42,29.77,10.0,Calm,Calm,-,N/A,,Clear,0,2013-09-01 21:55:00
5:15 PM,100.4,73.4,42,29.78,10.0,NNW,8.1,-,N/A,,Clear,330,2013-09-01 22:15:00
5:35 PM,96.8,78.8,56,29.78,10.0,NNW,9.2,-,N/A,,Clear,340,2013-09-01 22:35:00
5:55 PM,96.8,80.6,60,29.78,10.0,NNW,9.2,-,N/A,Thunderstorm,Clear,340,2013-09-01 22:55:00
6:15 PM,96.8,78.8,56,29.81,10.0,NE,8.1,-,N/A,Thunderstorm,Scattered Clouds,50,2013-09-01 23:15:00
6:35 PM,91.4,77.0,63,29.82,10.0,Calm,Calm,-,N/A,Thunderstorm,Mostly Cloudy,0,2013-09-01 23:35:00
6:55 PM,91.4,77.0,63,29.85,10.0,SE,4.6,-,N/A,Thunderstorm,Thunderstorm,140,2013-09-01 23:55:00
7:15 PM,89.6,75.2,62,29.85,10.0,East,5.8,-,N/A,Thunderstorm,Thunderstorm,80,2013-09-02 00:15:00
7:35 PM,86.0,73.4,66,29.84,10.0,NE,3.5,-,N/A,Thunderstorm,Scattered Clouds,40,2013-09-02 00:35:00
7:55 PM,82.4,73.4,74,29.84,10.0,South,6.9,-,N/A,,Scattered Clouds,180,2013-09-02 00:55:00
8:15 PM,78.8,73.4,83,29.86,10.0,SSW,9.2,-,N/A,Thunderstorm,Clear,200,2013-09-02 01:15:00
8:35 PM,77.0,71.6,83,29.87,10.0,SSW,6.9,-,N/A,,Clear,210,2013-09-02 01:35:00
8:55 PM,77.0,71.6,83,29.88,10.0,West,3.5,-,N/A,Thunderstorm,Scattered Clouds,270,2013-09-02 01:55:00
9:15 PM,77.0,73.4,89,29.88,10.0,SW,3.5,-,N/A,,Mostly Cloudy,220,2013-09-02 02:15:00
9:35 PM,77.0,71.6,83,29.89,10.0,Calm,Calm,-,N/A,Thunderstorm,Mostly Cloudy,0,2013-09-02 02:35:00
9:55 PM,77.0,71.6,83,29.89,10.0,SSW,3.5,-,N/A,Thunderstorm,Scattered Clouds,210,2013-09-02 02:55:00
10:15 PM,78.8,73.4,83,29.91,10.0,Calm,Calm,-,N/A,Thunderstorm,Thunderstorm,0,2013-09-02 03:15:00
10:35 PM,77.0,71.6,83,29.90,10.0,West,3.5,-,N/A,,Scattered Clouds,270,2013-09-02 03:35:00
10:55 PM,78.8,73.4,83,29.89,10.0,WSW,3.5,-,N/A,Thunderstorm,Clear,240,2013-09-02 03:55:00
11:15 PM,78.8,71.6,78,29.88,10.0,SW,5.8,-,N/A,,Clear,230,2013-09-02 04:15:00
11:35 PM,78.8,71.6,78,29.88,10.0,South,3.5,-,N/A,,Scattered Clouds,190,2013-09-02 04:35:00
11:55 PM,77.0,71.6,83,29.88,10.0,WSW,4.6,-,N/A,,Clear,240,2013-09-02 04:55:00